301  
ASUS41 KRLX 151910  
RWRRLX  
REGIONAL WEATHER ROUNDUP  
NATIONAL WEATHER SERVICE CHARLESTON WV  
300 PM EDT MON OCT 15 2018  
 
NOTE: "FAIR" INDICATES FEW OR NO CLOUDS BELOW 12,000 FEET WITH NO  
SIGNIFICANT WEATHER AND/OR S TO VISIBILITY
.  
 
WVZ003-152000-  
NORTHERN PANHANDLE OF WEST VIRGINIA  
 
CITY SKY/WX TMP DP RH WIND PRES REMARKS
 
WHEELING LGT RAIN 57 55 93 W14G25 29.98R FOG  

 
 
WVZ009-152000-  
NORTHWEST WEST VIRGINIA  
 
CITY SKY/WX TMP DP RH WIND PRES REMARKS
 
PARKERSBURG LGT RAIN 61 58 90 NW14G21 30.06R FOG  

 
 
WVZ006-152000-  
WESTERN WEST VIRGINIA  
 
CITY SKY/WX TMP DP RH WIND PRES REMARKS
 
HUNTINGTON RAIN 65 62 90 SW8 30.04S FOG  

 
 
WVZ015-152000-  
WEST CENTRAL WEST VIRGINIA  
 
CITY SKY/WX TMP DP RH WIND PRES REMARKS
 
CHARLESTON LGT RAIN 66 64 93 S9 30.04F  

 
 
WVZ022-031-152000-  
NORTH CENTRAL WEST VIRGINIA  
 
CITY SKY/WX TMP DP RH WIND PRES REMARKS
 
MORGANTOWN LGT RAIN 64 62 93 SW7G18 29.99F  
CLARKSBURG LGT RAIN 66 62 87 SW15 30.00F  
BUCKHANNON CLOUDY 64 64 100 SW12G20 30.04F FOG  

 
 
WVZ025-035-042-045-152000-  
SOUTHERN WEST VIRGINIA  
 
CITY SKY/WX TMP DP RH WIND PRES REMARKS
 
BECKLEY CLOUDY 65 57 75 SW14G21 30.12F  
LOGAN PTSUNNY 66 63 88 CALM 30.09R  
PINEVILLE FAIR 66 64 94 MISG 30.15F  
BLUEFIELD CLOUDY 68 57 68 SW18G28 30.15F  
LEWISBURG CLOUDY 63 60 88 SW3 30.12F  

 
 
WVZ047-152000-  
NORTHERN MOUNTAINS OF WEST VIRGINIA  
 
CITY SKY/WX TMP DP RH WIND PRES REMARKS
 
ELKINS LGT RAIN 63 59 87 S7 30.06F  

 
 
WVZ052-152000-  
EASTERN PANHANDLE OF WEST VIRGINIA  
 
CITY SKY/WX TMP DP RH WIND PRES REMARKS
 
MARTINSBURG LGT RAIN 64 62 93 S7 29.97F  
PETERSBURG FAIR 74 59 59 SW18G25 29.98S  

 
 
SOUTHEAST OHIO/NORTHEAST KENTUCKY  
 
CITY SKY/WX TMP DP RH WIND PRES REMARKS
 
ATHENS LGT RAIN 57 57 100 W13G20 30.04S  
ASHLAND LGT RAIN 59 57 94 N7 30.08R FOG  

 
 
 
CLICK HERE TO GO TO PREVIOUS BULLETINS.

The Nexlab WV Page
The Nexlab OH Page
The Nexlab KY Page
The Nexlab VA Page Main Text Page